Location: Drebach
(50.6670°N, 13.0330°E)
Time: 06:56:44
(UTC+01:00)

ISS - Pass Details

Date: 31 January 2021
Orbit: 417 x 422 km, 51.6° (Epoch: 05 March)

Event Time Altitude Azimuth Distance (km) Brightness Sun altitude
Rises 18:03:48 0° 281° (W) 2,373 1.4 -10.5°
Reaches altitude 10° 18:05:54 10° 282° (WNW) 1,508 0.2 -10.8°
Maximum altitude 18:09:18 85° 10° (N) 429 -3.8 -11.3°
Enters shadow 18:11:46 17° 100° (E) 1,137 -2.1 -11.7°
